Flag Weather past 2 weeks in Bonn, North Rhine-Westphalia, Germany

Now
51 °F

Partly sunny.


Feels Like: 51 °F
Forecast: 41 / 51 °F
Wind: 1 mph from Southeast

Location: Bonn-Hangelar

Current Time: Nov 23, 2014 at 8:42:32 AM

Latest Report: Nov 23, 2014 at 8:00 AM


Visibility: 28 mi

Pressure: 30.06 "Hg

Humidity: 82%

Dew point: 46 °F

Location of BonnLocation

Historic Weather in Bonn — Graph

°F

Bonn temperature yesterday

Maximum temperature yesterday: 61 °F (at 3:00 PM)
Minimum temperature yesterday: 38 °F (at 2:00 AM)
Average temperature yesterday: 48 °F

Past Weeks' High & Low Weather Summary

 TemperatureHumidityPressure
High61 °F (Nov 22, 3:00 PM)100% (Nov 11, 6:00 AM)30.33 "Hg (Nov 11, 6:00 AM)
Low34 °F (Nov 21, 6:00 AM)58% (Nov 13, 3:00 PM)29.50 "Hg (Nov 16, 4:00 PM)
Average47 °F89%29.85 "Hg
* Reported Nov 8 7:00 AM — Nov 23 7:00 AM, Bonn, Weather by CustomWeather, © 2014

Note: Actual official high and low records may vary slightly from our data, if they occured in-between our weather recording intervals... More about our weather records

Advertising

Bonn weather history for previous 24 hours

 ConditionsComfort  
Time TempWeatherWind HumidityBarometerVisibility
7:00 AM
Nov 23
55 °FPassing clouds.5 mph75%30.04 "Hg25 mi
6:00 AM48 °FPassing clouds.2 mph93%30.06 "Hg19 mi
5:00 AM52 °FOvercast.5 mph86%30.07 "Hg11 mi
4:00 AM51 °FOvercast.3 mph90%30.09 "Hg9 mi
3:00 AM52 °FOvercast.6 mph85%30.08 "Hg11 mi
2:00 AM51 °FOvercast.3 mph88%30.09 "Hg9 mi
1:00 AM53 °FOvercast.2 mph85%30.08 "Hg11 mi
12:00 AM51 °FOvercast.3 mph86%30.09 "Hg8 mi
11:00 PM
Nov 22
48 °FOvercast.1 mph92%30.09 "Hg6 mi
10:00 PM49 °FOvercast.2 mph87%30.09 "Hg7 mi
9:00 PM50 °FPassing clouds.2 mph81%30.06 "Hg25 mi
8:00 PM49 °FPassing clouds.1 mph82%30.06 "Hg31 mi
7:00 PM54 °FPassing clouds.2 mph72%30.06 "Hg31 mi
6:00 PM52 °FPassing clouds.2 mph77%30.05 "Hg31 mi
5:00 PM54 °FPassing clouds.2 mph76%30.04 "Hg31 mi
4:00 PM56 °FScattered clouds.1 mph73%30.04 "Hg37 mi
3:00 PM61 °FPassing clouds.2 mph68%30.03 "Hg37 mi
2:00 PM60 °FPassing clouds.2 mph70%30.04 "Hg37 mi
1:00 PM58 °FPartly sunny.1 mph75%30.05 "Hg19 mi
12:00 PM56 °FOvercast.2 mph80%30.05 "Hg19 mi
11:00 AM51 °FOvercast.2 mph85%30.06 "Hg19 mi
10:00 AM48 °FOvercast.3 mph90%30.06 "Hg16 mi
9:00 AM46 °FOvercast.2 mph91%30.07 "Hg16 mi
8:00 AM44 °FPartly sunny.3 mph91%30.06 "Hg16 mi
Weather by CustomWeather, © 2014

See weather overviewHow to use our weather pages